Location: ???? ?????????
(31.1304°N, 31.7111°E)
Time: 12:37:47
(UTC+00:00)

Transit 4A - Visible Passes

Search period start: 07 March 2021 00:00
Search period end: 17 March 2021 00:00
Orbit: 866 x 978 km, 66.8° (Epoch: 07 March)

Date Brightness Start Highest point End Pass type
(mag) Time Alt. Az. Time Alt. Az. Time Alt. Az.
07 Mar 9.1 17:23:17 10° NW 17:28:46 40° WSW 17:34:08 10° S visible
08 Mar 9.9 17:33:11 10° NW 17:37:53 25° WSW 17:42:30 10° SSW visible
09 Mar 10.5 17:43:45 10° WNW 17:46:56 15° WSW 17:50:05 10° SW visible
11 Mar 8.7 16:14:01 10° NW 16:19:48 55° WSW 16:25:25 10° S visible
12 Mar 9.7 16:23:43 10° NW 16:28:57 34° WSW 16:34:05 10° S visible
13 Mar 10.5 16:33:47 10° WNW 16:38:02 21° WSW 16:42:14 10° SSW visible
14 Mar 11.0 16:44:52 10° W 16:47:04 12° WSW 16:49:15 10° SW visible
